Regional Weather Roundup
Issued by NWS

Home | Current Version | Previous Version | Text Only | Print | Product List | Glossary On
Versions: 1 2 3 4 5 6 7 8 9 10 11 12 13 14 15 16 17 18 19 20 21 22 23 24 25 26 27 28 29 30 31 32 33 34 35 36 37 38 39 40 41 42 43 44 45 46 47 48 49 50
482
ASUS43 KBIS 221520
RWRND

NORTH DAKOTA REGIONAL WEATHER ROUNDUP
NATIONAL WEATHER SERVICE BISMARCK ND
1000 AM CDT FRI MAY 22 2015

NOTE: "FAIR" INDICATES FEW OR NO CLOUDS BELOW 12,000 FEET WITH NO
SIGNIFICANT WEATHER AND/OR OBSTRUCTIONS TO VISIBILITY.


NDZ001>003-009>011-017-221600-
NORTHWEST NORTH DAKOTA

CITY           SKY/WX    TMP DP  RH WIND       PRES   REMARKS
WILLISTON      SUNNY     63  41  44 CALM      30.13F
MINOT          SUNNY     69  37  30 SE8       30.13S
MINOT AFB      SUNNY     70  40  34 SE7       30.12F
$$

NDZ018>021-031>035-040>046-221600-
SOUTHWEST NORTH DAKOTA

CITY           SKY/WX    TMP DP  RH WIND       PRES   REMARKS
BISMARCK       SUNNY     62  45  53 CALM      30.16S
DICKINSON      SUNNY     63  33  32 SE14      30.12S
GARRISON         N/A     60  39  45 S5        30.15S
HETTINGER ARPT PTSUNNY   60  39  45 SE12      30.14S
$$

NDZ004>008-012>016-024-026-027-054-221600-
NORTHEAST NORTH DAKOTA

CITY           SKY/WX    TMP DP  RH WIND       PRES   REMARKS
GRAND FORKS    SUNNY     65  36  34 S9        30.17F
GRND FRKS AFB  SUNNY     66  37  34 SW9       30.18S
DEVILS LAKE    SUNNY     64  39  39 SW9       30.16S
$$

NDZ022-023-025-028>030-036>039-047>053-221600-
SOUTHEAST NORTH DAKOTA

CITY           SKY/WX    TMP DP  RH WIND       PRES   REMARKS
FARGO          SUNNY     65  40  39 CALM      30.19S
JAMESTOWN      SUNNY     63  41  44 S10       30.18R
$$




USA.gov is the U.S. government's official web portal to all federal, state and local government web resources and services.